| time (UTC) | temp C | wind direction | speed KPH | gust KPH | rain 1hr cm | rain 24hr cm | rain mn cm | humidity % | barometer mb |
| 20260507125541 | 21 | 53 | 3.2 | 8.0 | 0.00 | 0.00 | 0.00 | 82 | 1016.2 |
| 20260507125039 | 21 | 38 | 3.2 | 6.4 | 0.00 | 0.00 | 0.00 | 82 | 1016.2 |
| 20260507124539 | 21 | 50 | 1.6 | 6.4 | 0.00 | 0.00 | 0.00 | 81 | 1016.3 |
| 20260507124039 | 21 | 61 | 1.6 | 4.8 | 0.00 | 0.00 | 0.00 | 83 | 1016.4 |
| 20260507123537 | 21 | 61 | 1.6 | 4.8 | 0.00 | 0.00 | 0.00 | 87 | 1016.5 |
| 20260507123043 | 21 | 67 | 0.0 | 4.8 | 0.00 | 0.00 | 0.00 | 89 | 1016.5 |
| 20260507122535 | 21 | 67 | 1.6 | 4.8 | 0.00 | 0.00 | 0.00 | 90 | 1016.5 |
| 20260507122037 | 21 | 29 | 1.6 | 4.8 | 0.00 | 0.00 | 0.00 | 90 | 1016.6 |
| 20260507121537 | 21 | 59 | 0.0 | 6.4 | 0.00 | 0.00 | 0.00 | 89 | 1016.6 |
| 20260507121037 | 21 | 77 | 1.6 | 3.2 | 0.00 | 0.00 | 0.00 | 88 | 1016.6 |
| 20260507120534 | 21 | 77 | 1.6 | 3.2 | 0.00 | 0.00 | 0.00 | 90 | 1016.6 |
| 20260507120033 | 21 | 59 | 0.0 | 0.0 | 0.00 | 0.00 | 0.00 | 89 | 1016.6 |
| 20260507115532 | 21 | 59 | 0.0 | 4.8 | 0.00 | 0.00 | 0.00 | 87 | 1016.7 |
| 20260507115030 | 21 | 59 | 0.0 | 8.0 | 0.00 | 0.00 | 0.00 | 88 | 1016.7 |
| 20260507114529 | 22 | 62 | 4.8 | 8.0 | 0.00 | 0.00 | 0.00 | 87 | 1016.7 |
| 20260507114031 | 22 | 83 | 1.6 | 8.0 | 0.00 | 0.00 | 0.00 | 89 | 1016.8 |
| 20260507113527 | 22 | 318 | 1.6 | 9.7 | 0.00 | 0.00 | 0.00 | 89 | 1016.7 |
| 20260507113029 | 22 | 298 | 1.6 | 9.7 | 0.00 | 0.00 | 0.00 | 89 | 1016.7 |
| 20260507112527 | 22 | 101 | 3.2 | 12.9 | 0.00 | 0.00 | 0.00 | 89 | 1016.8 |
| 20260507112026 | 22 | 325 | 3.2 | 12.9 | 0.00 | 0.00 | 0.00 | 89 | 1016.9 |
| 20260507111526 | 22 | 271 | 1.6 | 11.3 | 0.00 | 0.00 | 0.00 | 89 | 1016.9 |
| 20260507111024 | 22 | 318 | 3.2 | 9.7 | 0.00 | 0.00 | 0.00 | 89 | 1016.9 |
| 20260507110524 | 22 | 317 | 3.2 | 14.5 | 0.00 | 0.00 | 0.00 | 89 | 1017.0 |
| 20260507110030 | 22 | 336 | 1.6 | 14.5 | 0.00 | 0.00 | 0.00 | 89 | 1017.0 |
| 20260507105525 | 22 | 326 | 1.6 | 11.3 | 0.00 | 0.00 | 0.00 | 90 | 1017.0 |
| 20260507105023 | 22 | 350 | 1.6 | 9.7 | 0.00 | 0.00 | 0.00 | 90 | 1017.0 |
| 20260507104523 | 22 | 117 | 1.6 | 6.4 | 0.00 | 0.00 | 0.00 | 90 | 1017.0 |
| 20260507104021 | 22 | 81 | 1.6 | 6.4 | 0.00 | 0.00 | 0.00 | 89 | 1017.0 |
| 20260507103520 | 22 | 288 | 0.0 | 9.7 | 0.00 | 0.00 | 0.00 | 89 | 1017.0 |
| 20260507103019 | 23 | 342 | 1.6 | 14.5 | 0.00 | 0.00 | 0.00 | 89 | 1017.1 |
| 20260507102517 | 23 | 11 | 3.2 | 14.5 | 0.00 | 0.00 | 0.00 | 89 | 1017.1 |
| 20260507102016 | 23 | 89 | 1.6 | 12.9 | 0.00 | 0.00 | 0.00 | 88 | 1017.1 |
| 20260507101517 | 23 | 325 | 1.6 | 12.9 | 0.00 | 0.00 | 0.00 | 89 | 1017.1 |
| 20260507101012 | 23 | 309 | 3.2 | 12.9 | 0.00 | 0.00 | 0.00 | 89 | 1017.2 |
| 20260507100516 | 23 | 46 | 3.2 | 12.9 | 0.00 | 0.00 | 0.00 | 89 | 1017.2 |
| 20260507100009 | 23 | 329 | 1.6 | 11.3 | 0.00 | 0.00 | 0.00 | 89 | 1017.2 |
| 20260507095509 | 23 | 281 | 1.6 | 9.7 | 0.00 | 0.00 | 0.00 | 88 | 1017.2 |
| 20260507095010 | 23 | 308 | 3.2 | 9.7 | 0.00 | 0.00 | 0.00 | 88 | 1017.3 |
| 20260507094509 | 23 | 328 | 3.2 | 12.9 | 0.00 | 0.00 | 0.00 | 88 | 1017.3 |
| 20260507094009 | 23 | 44 | 1.6 | 16.1 | 0.00 | 0.00 | 0.00 | 88 | 1017.2 |
| 20260507093509 | 23 | 49 | 4.8 | 16.1 | 0.00 | 0.00 | 0.00 | 88 | 1017.3 |
| 20260507093011 | 23 | 325 | 1.6 | 12.9 | 0.00 | 0.00 | 0.00 | 89 | 1017.4 |
| 20260507092512 | 23 | 301 | 3.2 | 17.7 | 0.00 | 0.00 | 0.00 | 89 | 1017.4 |
| 20260507092008 | 23 | 288 | 4.8 | 17.7 | 0.00 | 0.00 | 0.00 | 89 | 1017.4 |
| 20260507091509 | 23 | 108 | 4.8 | 12.9 | 0.00 | 0.00 | 0.00 | 89 | 1017.5 |
| 20260507091009 | 23 | 355 | 3.2 | 16.1 | 0.00 | 0.00 | 0.00 | 89 | 1017.5 |
| 20260507090509 | 23 | 305 | 4.8 | 16.1 | 0.00 | 0.00 | 0.00 | 89 | 1017.6 |
| 20260507090007 | 23 | 17 | 3.2 | 12.9 | 0.00 | 0.00 | 0.00 | 89 | 1017.6 |
| 20260507085508 | 23 | 290 | 1.6 | 12.9 | 0.00 | 0.00 | 0.00 | 89 | 1017.7 |
| 20260507085008 | 23 | 327 | 1.6 | 9.7 | 0.00 | 0.00 | 0.00 | 89 | 1017.7 |
| 20260507084512 | 23 | 336 | 3.2 | 9.7 | 0.00 | 0.00 | 0.00 | 89 | 1017.6 |
| 20260507084008 | 23 | 320 | 1.6 | 9.7 | 0.00 | 0.00 | 0.00 | 89 | 1017.7 |
| 20260507083509 | 23 | 11 | 1.6 | 11.3 | 0.00 | 0.00 | 0.00 | 89 | 1017.7 |
| 20260507083006 | 23 | 295 | 1.6 | 11.3 | 0.00 | 0.00 | 0.00 | 89 | 1017.7 |
| 20260507082507 | 23 | 296 | 3.2 | 8.0 | 0.00 | 0.00 | 0.00 | 89 | 1017.7 |
| 20260507082006 | 23 | 333 | 1.6 | 8.0 | 0.00 | 0.00 | 0.00 | 89 | 1017.7 |
| 20260507081506 | 23 | 57 | 3.2 | 8.0 | 0.00 | 0.00 | 0.00 | 89 | 1017.7 |
| 20260507081006 | 23 | 63 | 1.6 | 6.4 | 0.00 | 0.00 | 0.00 | 89 | 1017.7 |
| 20260507080511 | 23 | 61 | 1.6 | 9.7 | 0.00 | 0.00 | 0.00 | 89 | 1017.7 |
| 20260507080010 | 23 | 313 | 0.0 | 9.7 | 0.00 | 0.00 | 0.00 | 89 | 1017.6 |
| 20260507075505 | 23 | 271 | 1.6 | 8.0 | 0.00 | 0.00 | 0.00 | 88 | 1017.6 |
| 20260507075005 | 23 | 319 | 1.6 | 11.3 | 0.00 | 0.00 | 0.00 | 88 | 1017.6 |
| 20260507074505 | 23 | 263 | 1.6 | 11.3 | 0.00 | 0.00 | 0.00 | 88 | 1017.6 |
| 20260507074004 | 23 | 333 | 1.6 | 12.9 | 0.00 | 0.00 | 0.00 | 88 | 1017.5 |
| 20260507073504 | 23 | 290 | 3.2 | 12.9 | 0.00 | 0.00 | 0.00 | 87 | 1017.5 |
| 20260507073003 | 23 | 337 | 3.2 | 12.9 | 0.00 | 0.00 | 0.00 | 87 | 1017.5 |
| 20260507072503 | 23 | 311 | 3.2 | 9.7 | 0.00 | 0.00 | 0.00 | 87 | 1017.4 |
| 20260507072004 | 23 | 257 | 1.6 | 9.7 | 0.00 | 0.00 | 0.00 | 86 | 1017.4 |
| 20260507071502 | 23 | 280 | 1.6 | 12.9 | 0.00 | 0.00 | 0.00 | 86 | 1017.3 |
| 20260507071002 | 23 | 343 | 1.6 | 12.9 | 0.00 | 0.00 | 0.00 | 86 | 1017.3 |
| 20260507070600 | 23 | 317 | 1.6 | 9.7 | 0.00 | 0.00 | 0.00 | 85 | 1017.3 |
| 20260507070100 | 23 | 278 | 3.2 | 12.9 | 0.00 | 0.00 | 0.00 | 85 | 1017.2 |
| 20260507065558 | 23 | 321 | 1.6 | 14.5 | 0.00 | 0.00 | 0.00 | 85 | 1017.1 |
| 20260507065058 | 23 | 52 | 3.2 | 12.9 | 0.00 | 0.00 | 0.00 | 85 | 1017.0 |
| 20260507064613 | 23 | 38 | 3.2 | 12.9 | 0.00 | 0.00 | 0.00 | 84 | 1016.9 |
| 20260507064059 | 23 | 79 | 3.2 | 12.9 | 0.00 | 0.00 | 0.00 | 84 | 1016.9 |
| 20260507063556 | 24 | 56 | 1.6 | 12.9 | 0.00 | 0.00 | 0.00 | 84 | 1016.8 |
| 20260507063057 | 24 | 26 | 3.2 | 20.9 | 0.00 | 0.00 | 0.00 | 84 | 1016.7 |
| 20260507062554 | 24 | 57 | 4.8 | 20.9 | 0.00 | 0.00 | 0.00 | 83 | 1016.7 |
| 20260507062054 | 24 | 355 | 4.8 | 16.1 | 0.00 | 0.00 | 0.00 | 83 | 1016.7 |
| 20260507061554 | 24 | 96 | 3.2 | 11.3 | 0.00 | 0.00 | 0.00 | 83 | 1016.6 |
| 20260507061054 | 24 | 15 | 3.2 | 12.9 | 0.00 | 0.00 | 0.00 | 83 | 1016.5 |
| 20260507060553 | 24 | 331 | 3.2 | 16.1 | 0.00 | 0.00 | 0.00 | 82 | 1016.5 |
| 20260507060059 | 24 | 310 | 4.8 | 12.9 | 0.00 | 0.00 | 0.00 | 82 | 1016.4 |
| 20260507055553 | 24 | 30 | 3.2 | 17.7 | 0.00 | 0.00 | 0.00 | 82 | 1016.4 |
| 20260507055053 | 24 | 64 | 4.8 | 17.7 | 0.00 | 0.00 | 0.00 | 82 | 1016.3 |
| 20260507054605 | 24 | 340 | 1.6 | 17.7 | 0.00 | 0.00 | 0.00 | 82 | 1016.3 |
| 20260507054053 | 24 | 316 | 4.8 | 17.7 | 0.00 | 0.00 | 0.00 | 82 | 1016.2 |
| 20260507053553 | 24 | 67 | 3.2 | 14.5 | 0.00 | 0.00 | 0.00 | 82 | 1016.2 |
| 20260507053053 | 24 | 304 | 3.2 | 12.9 | 0.00 | 0.00 | 0.00 | 82 | 1016.1 |
| 20260507052552 | 24 | 49 | 3.2 | 12.9 | 0.00 | 0.00 | 0.00 | 82 | 1016.0 |
| 20260507052052 | 24 | 92 | 3.2 | 14.5 | 0.00 | 0.00 | 0.00 | 82 | 1015.8 |
| 20260507051555 | 25 | 333 | 4.8 | 17.7 | 0.00 | 0.00 | 0.00 | 82 | 1015.8 |
| 20260507051052 | 25 | 35 | 1.6 | 17.7 | 0.00 | 0.00 | 0.00 | 81 | 1015.7 |
| 20260507050552 | 25 | 22 | 1.6 | 9.7 | 0.00 | 0.00 | 0.00 | 81 | 1015.7 |
| 20260507050051 | 25 | 49 | 3.2 | 9.7 | 0.00 | 0.00 | 0.00 | 81 | 1015.5 |
| 20260507045554 | 25 | 344 | 3.2 | 11.3 | 0.00 | 0.00 | 0.00 | 81 | 1015.4 |
| 20260507045051 | 25 | 300 | 4.8 | 11.3 | 0.00 | 0.00 | 0.00 | 81 | 1015.4 |
| 20260507044551 | 25 | 285 | 3.2 | 14.5 | 0.00 | 0.00 | 0.00 | 80 | 1015.4 |
| 20260507044051 | 25 | 319 | 3.2 | 14.5 | 0.00 | 0.00 | 0.00 | 80 | 1015.3 |
| 20260507043551 | 25 | 277 | 4.8 | 14.5 | 0.00 | 0.00 | 0.00 | 80 | 1015.2 |
| 20260507043059 | 25 | 52 | 4.8 | 19.3 | 0.00 | 0.00 | 0.00 | 80 | 1015.3 |
| 20260507042550 | 25 | 307 | 8.0 | 19.3 | 0.00 | 0.00 | 0.00 | 79 | 1015.2 |
| 20260507042050 | 26 | 69 | 6.4 | 16.1 | 0.00 | 0.00 | 0.00 | 78 | 1015.1 |
| 20260507041602 | 26 | 336 | 4.8 | 16.1 | 0.00 | 0.00 | 0.00 | 77 | 1015.0 |
| 20260507041051 | 26 | 329 | 3.2 | 19.3 | 0.00 | 0.00 | 0.00 | 76 | 1014.9 |
| 20260507040553 | 26 | 43 | 6.4 | 19.3 | 0.00 | 0.00 | 0.00 | 76 | 1014.8 |
| 20260507040055 | 26 | 308 | 6.4 | 16.1 | 0.00 | 0.00 | 0.00 | 75 | 1014.8 |
| 20260507035549 | 26 | 314 | 6.4 | 22.5 | 0.00 | 0.00 | 0.00 | 74 | 1014.7 |
| 20260507035050 | 27 | 332 | 6.4 | 22.5 | 0.00 | 0.00 | 0.00 | 73 | 1014.7 |
| 20260507034553 | 26 | 292 | 8.0 | 19.3 | 0.00 | 0.00 | 0.00 | 73 | 1014.7 |
| 20260507034049 | 27 | 259 | 4.8 | 19.3 | 0.00 | 0.00 | 0.00 | 73 | 1014.6 |
| 20260507033549 | 27 | 333 | 8.0 | 19.3 | 0.00 | 0.00 | 0.00 | 73 | 1014.6 |
| 20260507033050 | 27 | 229 | 8.0 | 22.5 | 0.00 | 0.00 | 0.00 | 72 | 1014.5 |
| 20260507032549 | 27 | 350 | 6.4 | 22.5 | 0.00 | 0.00 | 0.00 | 71 | 1014.5 |
| 20260507032053 | 27 | 242 | 4.8 | 20.9 | 0.00 | 0.00 | 0.00 | 71 | 1014.5 |
| 20260507031549 | 27 | 288 | 4.8 | 22.5 | 0.00 | 0.00 | 0.00 | 69 | 1014.4 |
| 20260507031052 | 27 | 55 | 6.4 | 22.5 | 0.00 | 0.00 | 0.00 | 68 | 1014.4 |
| 20260507030548 | 28 | 319 | 6.4 | 19.3 | 0.00 | 0.00 | 0.00 | 68 | 1014.4 |
| 20260507030053 | 28 | 86 | 6.4 | 16.1 | 0.00 | 0.00 | 0.00 | 67 | 1014.3 |
| 20260507025548 | 28 | 88 | 4.8 | 17.7 | 0.00 | 0.00 | 0.00 | 67 | 1014.2 |
| 20260507025048 | 28 | 306 | 4.8 | 19.3 | 0.00 | 0.00 | 0.00 | 68 | 1014.1 |
| 20260507024548 | 28 | 332 | 4.8 | 19.3 | 0.00 | 0.00 | 0.00 | 68 | 1014.1 |
| 20260507024047 | 28 | 339 | 6.4 | 17.7 | 0.00 | 0.00 | 0.00 | 67 | 1014.1 |
| 20260507023547 | 28 | 166 | 6.4 | 17.7 | 0.00 | 0.00 | 0.00 | 68 | 1014.1 |
| 20260507023103 | 28 | 258 | 8.0 | 20.9 | 0.00 | 0.00 | 0.00 | 68 | 1014.1 |
| 20260507022548 | 28 | 51 | 6.4 | 20.9 | 0.00 | 0.00 | 0.00 | 67 | 1014.1 |
| 20260507022048 | 28 | 347 | 6.4 | 17.7 | 0.00 | 0.00 | 0.00 | 67 | 1014.1 |
| 20260507021551 | 28 | 312 | 6.4 | 17.7 | 0.00 | 0.00 | 0.00 | 68 | 1014.2 |
| 20260507021048 | 28 | 298 | 4.8 | 16.1 | 0.00 | 0.00 | 0.00 | 66 | 1014.2 |
| 20260507020546 | 28 | 62 | 4.8 | 17.7 | 0.00 | 0.00 | 0.00 | 65 | 1014.2 |
| 20260507020046 | 29 | 277 | 6.4 | 17.7 | 0.00 | 0.00 | 0.00 | 63 | 1014.3 |
| 20260507015545 | 29 | 283 | 6.4 | 24.1 | 0.00 | 0.00 | 0.00 | 64 | 1014.3 |
| 20260507015045 | 29 | 334 | 6.4 | 24.1 | 0.00 | 0.00 | 0.00 | 64 | 1014.3 |
| 20260507014557 | 30 | 24 | 6.4 | 16.1 | 0.00 | 0.00 | 0.00 | 62 | 1014.3 |
| 20260507014045 | 30 | 43 | 4.8 | 19.3 | 0.00 | 0.00 | 0.00 | 63 | 1014.3 |
| 20260507013544 | 29 | 71 | 8.0 | 19.3 | 0.00 | 0.00 | 0.00 | 63 | 1014.3 |
| 20260507013103 | 29 | 63 | 6.4 | 16.1 | 0.00 | 0.00 | 0.00 | 63 | 1014.3 |
| 20260507012545 | 29 | 90 | 8.0 | 19.3 | 0.00 | 0.00 | 0.00 | 60 | 1014.3 |
| 20260507012045 | 30 | 233 | 9.7 | 19.3 | 0.00 | 0.00 | 0.00 | 61 | 1014.4 |
| 20260507011545 | 30 | 35 | 4.8 | 17.7 | 0.00 | 0.00 | 0.00 | 61 | 1014.3 |
| 20260507011044 | 30 | 86 | 4.8 | 16.1 | 0.00 | 0.00 | 0.00 | 60 | 1014.4 |
| 20260507010544 | 30 | 72 | 8.0 | 16.1 | 0.00 | 0.00 | 0.00 | 61 | 1014.4 |
| 20260507010044 | 30 | 319 | 6.4 | 16.1 | 0.00 | 0.00 | 0.00 | 61 | 1014.5 |
| 20260507005543 | 30 | 281 | 4.8 | 17.7 | 0.00 | 0.00 | 0.00 | 60 | 1014.5 |
| 20260507005044 | 30 | 335 | 4.8 | 16.1 | 0.00 | 0.00 | 0.00 | 60 | 1014.5 |
| 20260507004543 | 30 | 253 | 4.8 | 17.7 | 0.00 | 0.00 | 0.00 | 59 | 1014.6 |
| 20260507004044 | 30 | 44 | 8.0 | 17.7 | 0.00 | 0.00 | 0.00 | 60 | 1014.6 |
| 20260507003543 | 30 | 265 | 4.8 | 17.7 | 0.00 | 0.00 | 0.00 | 61 | 1014.6 |
| 20260507003044 | 29 | 301 | 8.0 | 20.9 | 0.00 | 0.00 | 0.00 | 61 | 1014.6 |
| 20260507002544 | 30 | 300 | 6.4 | 19.3 | 0.00 | 0.00 | 0.00 | 60 | 1014.6 |
| 20260507002043 | 30 | 331 | 6.4 | 19.3 | 0.00 | 0.00 | 0.00 | 60 | 1014.7 |
| 20260507001600 | 30 | 65 | 8.0 | 17.7 | 0.00 | 0.00 | 0.00 | 59 | 1014.7 |
| 20260507001045 | 30 | 73 | 4.8 | 16.1 | 0.00 | 0.00 | 0.00 | 60 | 1014.8 |
| 20260507000542 | 30 | 311 | 8.0 | 17.7 | 0.00 | 0.00 | 0.00 | 59 | 1014.9 |
| 20260507000042 | 30 | 331 | 8.0 | 17.7 | 0.00 | 0.00 | 0.00 | 58 | 1014.8 |
| 20260506235544 | 30 | 42 | 4.8 | 19.3 | 0.00 | 0.00 | 0.00 | 59 | 1014.8 |
| 20260506235041 | 30 | 63 | 6.4 | 19.3 | 0.00 | 0.00 | 0.00 | 58 | 1014.9 |
| 20260506234541 | 30 | 289 | 3.2 | 16.1 | 0.00 | 0.00 | 0.00 | 59 | 1014.9 |
| 20260506234045 | 30 | 297 | 6.4 | 17.7 | 0.00 | 0.00 | 0.00 | 60 | 1015.0 |
| 20260506233542 | 30 | 32 | 9.7 | 17.7 | 0.00 | 0.00 | 0.00 | 59 | 1015.1 |
| 20260506233045 | 31 | 292 | 4.8 | 17.7 | 0.00 | 0.00 | 0.00 | 58 | 1015.1 |
| 20260506232543 | 30 | 296 | 4.8 | 17.7 | 0.00 | 0.00 | 0.00 | 59 | 1015.1 |
| 20260506232040 | 30 | 279 | 6.4 | 20.9 | 0.00 | 0.00 | 0.00 | 60 | 1015.1 |
| 20260506231546 | 30 | 302 | 6.4 | 20.9 | 0.00 | 0.00 | 0.00 | 60 | 1015.1 |
| 20260506231040 | 30 | 248 | 4.8 | 16.1 | 0.00 | 0.00 | 0.00 | 61 | 1015.2 |
| 20260506230539 | 30 | 303 | 4.8 | 16.1 | 0.00 | 0.00 | 0.00 | 61 | 1015.2 |
| 20260506230039 | 30 | 315 | 3.2 | 19.3 | 0.00 | 0.00 | 0.00 | 59 | 1015.3 |
| 20260506225539 | 30 | 47 | 3.2 | 19.3 | 0.00 | 0.00 | 0.00 | 61 | 1015.3 |
| 20260506225039 | 30 | 277 | 4.8 | 14.5 | 0.00 | 0.00 | 0.00 | 60 | 1015.5 |
| 20260506224539 | 30 | 69 | 6.4 | 14.5 | 0.00 | 0.00 | 0.00 | 62 | 1015.5 |
| 20260506224038 | 30 | 65 | 4.8 | 14.5 | 0.00 | 0.00 | 0.00 | 61 | 1015.6 |
| 20260506223538 | 30 | 273 | 4.8 | 14.5 | 0.00 | 0.00 | 0.00 | 60 | 1015.6 |
| 20260506223045 | 30 | 271 | 4.8 | 14.5 | 0.00 | 0.00 | 0.00 | 58 | 1015.6 |
| 20260506222537 | 30 | 78 | 3.2 | 14.5 | 0.00 | 0.00 | 0.00 | 60 | 1015.6 |
| 20260506222037 | 30 | 300 | 6.4 | 14.5 | 0.00 | 0.00 | 0.00 | 59 | 1015.6 |
| 20260506221537 | 30 | 279 | 6.4 | 16.1 | 0.00 | 0.00 | 0.00 | 59 | 1015.6 |
| 20260506221036 | 30 | 306 | 6.4 | 16.1 | 0.00 | 0.00 | 0.00 | 60 | 1015.6 |
| 20260506220536 | 30 | 311 | 4.8 | 14.5 | 0.00 | 0.00 | 0.00 | 60 | 1015.7 |
| 20260506220035 | 30 | 42 | 4.8 | 16.1 | 0.00 | 0.00 | 0.00 | 60 | 1015.6 |
| 20260506215535 | 30 | 42 | 4.8 | 20.9 | 0.00 | 0.00 | 0.00 | 60 | 1015.7 |
| 20260506215034 | 30 | 127 | 6.4 | 20.9 | 0.00 | 0.00 | 0.00 | 61 | 1015.8 |
| 20260506214534 | 30 | 292 | 4.8 | 22.5 | 0.00 | 0.00 | 0.00 | 61 | 1015.9 |
| 20260506214033 | 30 | 321 | 4.8 | 22.5 | 0.00 | 0.00 | 0.00 | 60 | 1015.9 |
| 20260506213534 | 30 | 80 | 6.4 | 20.9 | 0.00 | 0.00 | 0.00 | 60 | 1016.0 |
| 20260506213037 | 30 | 335 | 4.8 | 14.5 | 0.00 | 0.00 | 0.00 | 59 | 1016.0 |
| 20260506212533 | 30 | 84 | 3.2 | 12.9 | 0.00 | 0.00 | 0.00 | 60 | 1016.1 |
| 20260506212032 | 30 | 326 | 3.2 | 12.9 | 0.00 | 0.00 | 0.00 | 61 | 1016.1 |
| 20260506211531 | 30 | 306 | 4.8 | 16.1 | 0.00 | 0.00 | 0.00 | 61 | 1016.2 |
| 20260506211030 | 30 | 349 | 4.8 | 16.1 | 0.00 | 0.00 | 0.00 | 61 | 1016.3 |
| 20260506210529 | 29 | 55 | 4.8 | 14.5 | 0.00 | 0.00 | 0.00 | 61 | 1016.2 |
| 20260506210031 | 29 | 46 | 4.8 | 12.9 | 0.00 | 0.00 | 0.00 | 62 | 1016.2 |
| 20260506205527 | 29 | 306 | 3.2 | 9.7 | 0.00 | 0.00 | 0.00 | 61 | 1016.3 |
| 20260506205027 | 29 | 250 | 3.2 | 9.7 | 0.00 | 0.00 | 0.00 | 61 | 1016.4 |
| 20260506204527 | 29 | 276 | 3.2 | 12.9 | 0.00 | 0.00 | 0.00 | 61 | 1016.3 |
| 20260506204026 | 29 | 311 | 4.8 | 16.1 | 0.00 | 0.00 | 0.00 | 62 | 1016.3 |
| 20260506203525 | 28 | 321 | 4.8 | 16.1 | 0.00 | 0.00 | 0.00 | 64 | 1016.2 |
| 20260506203023 | 28 | 228 | 3.2 | 9.7 | 0.00 | 0.00 | 0.00 | 65 | 1016.2 |
| 20260506202523 | 28 | 252 | 4.8 | 11.3 | 0.00 | 0.00 | 0.00 | 66 | 1016.3 |
| 20260506202024 | 28 | 200 | 3.2 | 11.3 | 0.00 | 0.00 | 0.00 | 65 | 1016.4 |
| 20260506201523 | 28 | 235 | 1.6 | 9.7 | 0.00 | 0.00 | 0.00 | 65 | 1016.4 |
| 20260506201023 | 28 | 248 | 1.6 | 8.0 | 0.00 | 0.00 | 0.00 | 66 | 1016.4 |
| 20260506200521 | 28 | 216 | 3.2 | 9.7 | 0.00 | 0.00 | 0.00 | 66 | 1016.3 |
| 20260506200021 | 27 | 193 | 4.8 | 9.7 | 0.00 | 0.00 | 0.00 | 66 | 1016.3 |
| 20260506195520 | 28 | 275 | 3.2 | 8.0 | 0.00 | 0.00 | 0.00 | 66 | 1016.3 |
| 20260506195020 | 28 | 240 | 1.6 | 8.0 | 0.00 | 0.00 | 0.00 | 65 | 1016.5 |
| 20260506194520 | 28 | 220 | 3.2 | 11.3 | 0.00 | 0.00 | 0.00 | 66 | 1016.5 |
| 20260506194023 | 28 | 208 | 3.2 | 11.3 | 0.00 | 0.00 | 0.00 | 67 | 1016.5 |
| 20260506193520 | 28 | 227 | 3.2 | 8.0 | 0.00 | 0.00 | 0.00 | 67 | 1016.5 |
| 20260506193017 | 27 | 230 | 3.2 | 8.0 | 0.00 | 0.00 | 0.00 | 66 | 1016.6 |
| 20260506192517 | 27 | 210 | 3.2 | 9.7 | 0.00 | 0.00 | 0.00 | 67 | 1016.5 |
| 20260506192016 | 27 | 265 | 3.2 | 9.7 | 0.00 | 0.00 | 0.00 | 70 | 1016.5 |
| 20260506191517 | 27 | 205 | 3.2 | 8.0 | 0.00 | 0.00 | 0.00 | 69 | 1016.4 |
| 20260506191015 | 27 | 268 | 3.2 | 9.7 | 0.00 | 0.00 | 0.00 | 70 | 1016.4 |
| 20260506190514 | 26 | 179 | 3.2 | 9.7 | 0.00 | 0.00 | 0.00 | 70 | 1016.4 |
| 20260506190014 | 26 | 245 | 3.2 | 9.7 | 0.00 | 0.00 | 0.00 | 70 | 1016.4 |
| 20260506185614 | 27 | 244 | 1.6 | 6.4 | 0.00 | 0.00 | 0.00 | 70 | 1016.3 |
| 20260506185014 | 26 | 221 | 3.2 | 8.0 | 0.00 | 0.00 | 0.00 | 70 | 1016.3 |
| 20260506184513 | 27 | 244 | 1.6 | 8.0 | 0.00 | 0.00 | 0.00 | 68 | 1016.3 |
| 20260506184013 | 27 | 205 | 4.8 | 8.0 | 0.00 | 0.00 | 0.00 | 68 | 1016.3 |
| 20260506183513 | 27 | 113 | 1.6 | 8.0 | 0.00 | 0.00 | 0.00 | 68 | 1016.2 |
| 20260506183012 | 27 | 215 | 1.6 | 4.8 | 0.00 | 0.00 | 0.00 | 67 | 1016.3 |
| 20260506182513 | 27 | 228 | 0.0 | 3.2 | 0.00 | 0.00 | 0.00 | 67 | 1016.3 |
| 20260506182011 | 27 | 263 | 0.0 | 3.2 | 0.00 | 0.00 | 0.00 | 67 | 1016.2 |
| 20260506181512 | 27 | 202 | 1.6 | 3.2 | 0.00 | 0.00 | 0.00 | 65 | 1016.2 |
| 20260506181013 | 27 | 194 | 0.0 | 3.2 | 0.00 | 0.00 | 0.00 | 66 | 1016.3 |
| 20260506180519 | 27 | 149 | 0.0 | 3.2 | 0.00 | 0.00 | 0.00 | 67 | 1016.2 |
| 20260506180008 | 27 | 313 | 0.0 | 0.0 | 0.00 | 0.00 | 0.00 | 68 | 1016.1 |
| 20260506175511 | 26 | 313 | 0.0 | 0.0 | 0.00 | 0.00 | 0.00 | 69 | 1016.0 |
| 20260506175006 | 26 | 313 | 0.0 | 0.0 | 0.00 | 0.00 | 0.00 | 68 | 1016.0 |
| 20260506174504 | 26 | 313 | 0.0 | 0.0 | 0.00 | 0.00 | 0.00 | 68 | 1016.0 |
| 20260506174006 | 26 | 68 | 0.0 | 0.0 | 0.00 | 0.00 | 0.00 | 66 | 1015.9 |
| 20260506173503 | 26 | 68 | 0.0 | 0.0 | 0.00 | 0.00 | 0.00 | 64 | 1015.8 |
| 20260506173003 | 25 | 68 | 0.0 | 0.0 | 0.00 | 0.00 | 0.00 | 65 | 1015.8 |
| 20260506172600 | 25 | 68 | 0.0 | 0.0 | 0.00 | 0.00 | 0.00 | 66 | 1015.6 |
| 20260506172059 | 24 | 68 | 0.0 | 0.0 | 0.00 | 0.00 | 0.00 | 67 | 1015.6 |
| 20260506171602 | 24 | 68 | 0.0 | 0.0 | 0.00 | 0.00 | 0.00 | 67 | 1015.6 |
| 20260506171057 | 23 | 68 | 0.0 | 0.0 | 0.00 | 0.00 | 0.00 | 68 | 1015.5 |
| 20260506170554 | 23 | 68 | 0.0 | 1.6 | 0.00 | 0.00 | 0.00 | 71 | 1015.4 |
| 20260506170053 | 22 | 68 | 0.0 | 1.6 | 0.00 | 0.00 | 0.00 | 70 | 1015.5 |
| 20260506165552 | 22 | 68 | 0.0 | 3.2 | 0.00 | 0.00 | 0.00 | 71 | 1015.3 |
| 20260506165052 | 22 | 68 | 0.0 | 3.2 | 0.00 | 0.00 | 0.00 | 72 | 1015.2 |
| 20260506164552 | 21 | 69 | 1.6 | 3.2 | 0.00 | 0.00 | 0.00 | 73 | 1015.1 |
| 20260506164051 | 21 | 84 | 0.0 | 1.6 | 0.00 | 0.00 | 0.00 | 76 | 1015.2 |
| 20260506163550 | 20 | 83 | 0.0 | 1.6 | 0.00 | 0.00 | 0.00 | 78 | 1015.2 |
| 20260506163051 | 20 | 83 | 0.0 | 1.6 | 0.00 | 0.00 | 0.00 | 78 | 1015.1 |
| 20260506162553 | 20 | 83 | 0.0 | 1.6 | 0.00 | 0.00 | 0.00 | 79 | 1015.0 |
| 20260506162053 | 19 | 83 | 0.0 | 0.0 | 0.00 | 0.00 | 0.00 | 79 | 1015.0 |
| 20260506161555 | 20 | 83 | 0.0 | 0.0 | 0.00 | 0.00 | 0.00 | 78 | 1015.0 |
| 20260506161049 | 20 | 84 | 0.0 | 0.0 | 0.00 | 0.00 | 0.00 | 78 | 1014.9 |
| 20260506160549 | 20 | 84 | 0.0 | 0.0 | 0.00 | 0.00 | 0.00 | 77 | 1014.9 |
| 20260506160059 | 20 | 84 | 0.0 | 1.6 | 0.00 | 0.00 | 0.00 | 77 | 1015.0 |
| 20260506155548 | 20 | 84 | 0.0 | 3.2 | 0.00 | 0.00 | 0.00 | 77 | 1014.9 |
| 20260506155048 | 20 | 84 | 0.0 | 3.2 | 0.00 | 0.00 | 0.00 | 78 | 1014.9 |
| 20260506154548 | 20 | 96 | 0.0 | 3.2 | 0.00 | 0.00 | 0.00 | 79 | 1014.7 |
| 20260506154048 | 20 | 103 | 0.0 | 1.6 | 0.00 | 0.00 | 0.00 | 80 | 1014.7 |
| 20260506153548 | 20 | 104 | 0.0 | 0.0 | 0.00 | 0.00 | 0.00 | 80 | 1014.7 |
| 20260506153048 | 20 | 103 | 0.0 | 3.2 | 0.00 | 0.00 | 0.00 | 79 | 1014.7 |
| 20260506152548 | 20 | 104 | 0.0 | 4.8 | 0.00 | 0.00 | 0.00 | 79 | 1014.7 |
| 20260506152048 | 20 | 103 | 1.6 | 4.8 | 0.00 | 0.00 | 0.00 | 79 | 1014.5 |
| 20260506151548 | 20 | 69 | 0.0 | 3.2 | 0.00 | 0.00 | 0.00 | 80 | 1014.6 |
| 20260506151047 | 20 | 69 | 0.0 | 1.6 | 0.00 | 0.00 | 0.00 | 80 | 1014.5 |
| 20260506150547 | 20 | 69 | 0.0 | 1.6 | 0.00 | 0.00 | 0.00 | 80 | 1014.7 |
| 20260506150047 | 20 | 69 | 0.0 | 4.8 | 0.00 | 0.00 | 0.00 | 80 | 1014.4 |
| 20260506145550 | 20 | 69 | 1.6 | 4.8 | 0.00 | 0.00 | 0.00 | 80 | 1014.4 |
| 20260506145046 | 20 | 78 | 1.6 | 4.8 | 0.00 | 0.00 | 0.00 | 81 | 1014.3 |
| 20260506144546 | 20 | 78 | 0.0 | 3.2 | 0.00 | 0.00 | 0.00 | 82 | 1014.4 |
| 20260506144046 | 20 | 78 | 0.0 | 3.2 | 0.00 | 0.00 | 0.00 | 83 | 1014.4 |
| 20260506143546 | 20 | 78 | 0.0 | 3.2 | 0.00 | 0.00 | 0.00 | 84 | 1014.3 |
| 20260506143046 | 20 | 78 | 0.0 | 0.0 | 0.00 | 0.00 | 0.00 | 85 | 1014.2 |
| 20260506142544 | 20 | 78 | 0.0 | 0.0 | 0.00 | 0.00 | 0.00 | 84 | 1014.3 |
| 20260506142047 | 20 | 78 | 0.0 | 0.0 | 0.00 | 0.00 | 0.00 | 84 | 1014.3 |
| 20260506141543 | 20 | 78 | 0.0 | 0.0 | 0.00 | 0.00 | 0.00 | 84 | 1014.3 |
| 20260506141043 | 20 | 78 | 0.0 | 0.0 | 0.00 | 0.00 | 0.00 | 84 | 1014.5 |
| 20260506140542 | 20 | 78 | 0.0 | 0.0 | 0.00 | 0.00 | 0.00 | 84 | 1014.4 |
| 20260506140046 | 20 | 78 | 0.0 | 1.6 | 0.00 | 0.00 | 0.00 | 83 | 1014.4 |
| 20260506135540 | 20 | 78 | 0.0 | 1.6 | 0.00 | 0.00 | 0.00 | 83 | 1014.5 |
| 20260506135040 | 20 | 78 | 0.0 | 1.6 | 0.00 | 0.00 | 0.00 | 83 | 1014.6 |
| 20260506134608 | 20 | 78 | 0.0 | 1.6 | 0.00 | 0.00 | 0.00 | 83 | 1014.5 |
| 20260506134039 | 20 | 78 | 0.0 | 1.6 | 0.00 | 0.00 | 0.00 | 83 | 1014.4 |
| 20260506133538 | 20 | 78 | 0.0 | 0.0 | 0.00 | 0.00 | 0.00 | 83 | 1014.5 |
| 20260506133038 | 20 | 78 | 0.0 | 0.0 | 0.00 | 0.00 | 0.00 | 82 | 1014.6 |
| 20260506132537 | 21 | 78 | 0.0 | 1.6 | 0.00 | 0.00 | 0.00 | 81 | 1014.4 |
| 20260506132037 | 21 | 78 | 0.0 | 1.6 | 0.00 | 0.00 | 0.00 | 81 | 1014.4 |
| 20260506131546 | 21 | 78 | 0.0 | 0.0 | 0.00 | 0.00 | 0.00 | 80 | 1014.3 |
| 20260506131036 | 21 | 78 | 0.0 | 0.0 | 0.00 | 0.00 | 0.00 | 80 | 1014.4 |
| 20260506130635 | 21 | 78 | 0.0 | 0.0 | 0.00 | 0.00 | 0.00 | 80 | 1014.4 |